#timestamp,LO_Frequency,Hit,StdDev 
1710565215.2,286047007.8,N
1710565235.0,286047010.5,N
1710565235.9,286047010.5,N
1710565255.8,286047003.6,N
1710565275.6,286046998.6,N
1710565295.4,286046998.9,N
1710565315.3,286046999.8,N
1710565335.1,286047004.0,N
1710565355.9,286047003.0,N
1710565375.7,286046995.5,N
1710565395.5,286046991.8,N
1710565415.4,286046988.3,N
1710565435.2,286046983.9,N
1710565455.1,286046988.7,N
1710565456.0,286046988.7,N
1710565475.8,286046996.4,N
1710565495.6,286046993.0,N
1710565515.5,286046989.3,N
1710565535.3,286046984.6,N
1710565555.2,286046983.7,N
1710565575.9,286046988.2,N
1710565595.7,286046984.2,N
1710565615.6,286046982.7,N
1710565635.4,286046983.0,N
1710565655.2,286046979.2,N
1710565675.1,286046979.3,N
1710565676.0,286046979.3,N
1710565695.8,286046982.5,N
1710565715.7,286046978.6,N
1710565735.5,286046976.7,N
1710565755.3,286046974.3,N
1710565775.2,286046976.7,N
1710565795.0,286046971.9,N
1710565795.9,286046971.9,Y
1710565815.8,286046981.7,P
1710565835.6,286046981.0,P
1710565855.4,286046979.4,P
1710565875.3,286046981.3,Y
1710565895.1,286046998.0,P
1710565915.9,286046997.6,N
1710565935.7,286046999.5,N
1710565955.5,286047004.4,N
1710565975.4,286047002.3,N
1710565995.2,286047001.4,N
1710566015.0,286047003.1,N
1710566015.9,286047003.1,N
1710566035.8,286047005.3,N
1710566055.6,286047001.5,N
1710566075.5,286047002.0,N
1710566095.3,286047006.0,N
1710566115.1,286047016.0,N
1710566135.9,286047018.3,N
1710566155.7,286047020.3,N
1710566175.5,286047024.0,N
1710566195.4,286047020.8,N
1710566215.2,286047025.2,N
1710566235.1,286047029.8,N
1710566236.0,286047029.8,N
1710566255.8,286047022.8,N
1710566275.6,286047021.3,N
1710566295.5,286047019.7,N
1710566315.3,286047016.8,N
1710566335.1,286047010.9,N
1710566355.9,286047008.0,N
1710566375.7,286047005.1,N
1710566395.6,286047002.7,N
1710566415.4,286046996.8,N
1710566435.2,286046995.4,N
1710566455.1,286046997.0,N
1710566456.0,286046997.0,N
1710566475.8,286046998.9,N
1710566495.7,286047000.4,N
1710566515.5,286046998.4,N
1710566535.3,286046995.7,N
1710566555.2,286046995.2,N
1710566575.0,286047001.6,N
1710566575.9,286047001.6,N
1710566595.8,286047004.1,N
1710566615.6,286047003.1,N
1710566635.4,286047002.1,N
1710566655.3,286047000.3,N
1710566675.1,286047001.0,N
1710566695.8,286047002.9,N
1710566715.7,286047006.8,N
1710566735.5,286047009.7,N
1710566755.4,286047018.5,N
1710566775.2,286047019.3,N
1710566795.0,286047022.8,N
1710566795.9,286047022.8,N
1710566815.8,286047025.9,N
1710566835.6,286047022.2,N
1710566855.4,286047023.4,N
1710566875.3,286047020.2,N
1710566895.1,286047019.9,N
1710566915.9,286047019.8,N
1710566935.7,286047022.3,N
1710566955.5,286047019.9,N
1710566975.4,286047014.8,N
1710566995.2,286047016.9,N
1710567015.0,286047016.5,N
1710567015.9,286047016.5,N
1710567035.8,286047009.3,N
1710567055.6,286047011.9,N
1710567075.5,286047012.3,N
1710567095.3,286047004.7,N
1710567115.1,286047005.4,N
1710567135.9,286047003.5,N
1710567155.7,286047007.3,N
1710567175.5,286047003.1,N
1710567195.4,286047001.8,N
1710567215.2,286046999.9,N
1710567235.1,286046999.3,N
1710567236.0,286046999.3,N
1710567255.8,286047004.4,N
1710567275.6,286047003.7,N
1710567295.5,286047001.8,N
1710567315.3,286047000.7,N
1710567335.1,286046999.0,N
1710567355.9,286046995.6,N
1710567375.7,286046997.0,N
1710567395.6,286047004.0,N
1710567415.4,286047003.5,N
1710567435.2,286047005.6,N
1710567455.1,286047008.2,N
1710567456.0,286047008.2,N
1710567475.8,286047008.0,N
1710567495.6,286047013.6,N
1710567515.5,286047016.1,N
1710567535.3,286047018.9,Y
1710567555.2,286047019.1,P
1710567575.9,286047018.0,N
1710567595.7,286047016.5,N
1710567615.6,286047020.3,Y
1710567635.4,286047009.3,P
1710567655.2,286047013.6,P
1710567675.1,286047009.5,P
1710567676.0,286047009.5,Y
1710567695.8,286046997.0,P
1710567715.7,286046995.6,N
1710567735.5,286046993.9,N
1710567755.3,286046993.8,N
1710567775.2,286046993.9,N
1710567795.0,286046994.8,N
1710567795.9,286046994.8,N
1710567815.8,286046992.2,N
1710567835.6,286046993.6,N
1710567855.4,286046992.5,N
1710567875.3,286046990.7,N
1710567895.1,286046987.2,N
1710567915.9,286046989.5,N
1710567935.7,286046990.2,N
1710567955.5,286046994.3,N
1710567975.4,286046996.1,N
1710567995.2,286046998.1,N
1710568015.0,286047000.2,N
1710568015.9,286047000.2,N
1710568035.8,286047003.5,N
1710568055.6,286047008.0,N
1710568075.5,286047009.4,N
1710568095.3,286047006.5,N
1710568115.1,286047009.0,N
1710568135.9,286047008.1,N
1710568155.7,286047010.8,N
1710568175.5,286047008.1,N
1710568195.4,286047012.8,N
1710568215.2,286047019.5,N
1710568235.1,286047021.2,N
1710568236.0,286047021.2,N
1710568255.8,286047020.7,N
1710568275.6,286047021.5,N
1710568295.5,286047018.8,N
1710568315.3,286047018.1,N
1710568335.2,286047023.5,N
1710568355.9,286047020.4,N
1710568375.7,286047014.1,N
1710568395.6,286047013.0,N
1710568415.4,286047012.3,N
1710568435.3,286047008.0,N
1710568455.1,286047012.1,N
1710568456.0,286047012.1,N
1710568475.8,286047012.5,N
1710568495.7,286047014.4,N
1710568515.5,286047015.7,N
1710568535.3,286047019.9,N
1710568555.2,286047016.1,N
1710568575.0,286047017.1,N
1710568575.9,286047017.1,Y
1710568595.8,286047002.9,P
1710568615.6,286047001.7,N
1710568635.4,286046996.7,N
1710568655.3,286046996.0,N
1710568675.1,286046989.2,N
1710568695.9,286046985.9,N
1710568715.7,286046979.0,N
1710568735.5,286046977.4,N
1710568755.4,286046977.9,N
1710568775.2,286046978.7,N
1710568795.0,286046978.3,N
1710568796.0,286046978.3,N
